This is the latest recevied weather packets stored in our database for station/object KE8WMS. If no packets are shown the sender has not sent any weather packets the latest 10 day(s).
| Time | Temp. | Humidity | Pressure | Rain* | Wind** | Luminosity | Snow |
|---|---|---|---|---|---|---|---|
| 1788044274 | 23.33° C | 72% | 1016.2 hPa | 0 mm | - | 67 W/m² | - |
| 1788043970 | 23.33° C | 72% | 1016.3 hPa | 0 mm | - | 58 W/m² | - |
| 1788043665 | 23.89° C | 73% | 1016.7 hPa | 0 mm | - | 49 W/m² | - |
| 1788043361 | 23.89° C | 70% | 1016.4 hPa | 0 mm | - | 51 W/m² | - |
| 1788043060 | 23.89° C | 73% | 1016.6 hPa | 0 mm | - | 64 W/m² | - |
| 1788042755 | 23.89° C | 69% | 1016.5 hPa | 0 mm | - | 79 W/m² | - |
| 1788042454 | 24.44° C | 72% | 1016.8 hPa | 0 mm | - | 91 W/m² | - |
| 1788042150 | 24.44° C | 72% | 1016.6 hPa | 0 mm | - | 87 W/m² | - |
| 1788041845 | 24.44° C | 68% | 1016.6 hPa | 0 mm | - | 92 W/m² | - |
| 1788041539 | 24.44° C | 69% | 1016.6 hPa | 0 mm | - | 112 W/m² | - |
| 1788041234 | 24.44° C | 69% | 1016.6 hPa | 0 mm | - | 114 W/m² | - |
| 1788040933 | 24.44° C | 70% | 1016.5 hPa | 0 mm | - | 113 W/m² | - |
| 1788040632 | 24.44° C | 70% | 1016.5 hPa | 0 mm | - | 108 W/m² | - |
| 1788040328 | 24.44° C | 68% | 1016.7 hPa | 0 mm | - | 106 W/m² | - |
| 1788040027 | 24.44° C | 66% | 1016.6 hPa | 0 mm | - | 113 W/m² | - |
| 1788039722 | 24.44° C | 67% | 1016.5 hPa | 0 mm | - | 127 W/m² | - |
| 1788039417 | 24.44° C | 68% | 1016.4 hPa | 0 mm | - | 138 W/m² | - |
| 1788039113 | 25° C | 67% | 1016.8 hPa | 0 mm | - | 144 W/m² | - |
| 1788038809 | 24.44° C | 66% | 1016.5 hPa | 0 mm | - | 141 W/m² | - |
| 1788038508 | 25° C | 71% | 1016.8 hPa | 0 mm | - | 141 W/m² | - |
| 1788038207 | 25° C | 67% | 1016.6 hPa | 0 mm | - | 150 W/m² | - |
| 1788037902 | 25° C | 66% | 1016.5 hPa | 0 mm | - | 164 W/m² | - |
| 1788037597 | 25.56° C | 66% | 1016.9 hPa | 0 mm | - | 150 W/m² | - |
| 1788037293 | 25.56° C | 64% | 1016.6 hPa | 0 mm | - | 144 W/m² | - |
| 1788036992 | 26.11° C | 64% | 1016.6 hPa | 0 mm | - | 178 W/m² | - |
* Rain latest hour (hover to see other rain measurements)
** Current wind speed in m/s (hover to see current wind gust speed)